📊 Raw Sensor Data
Showing records 34151 to 34175 of 84,829 total
| ID | Distance (ft) | Battery V | Battery A | Int Temp (°F) | Int Humid (%) | Ext Temp (°F) | Solar V | RSSI | SNR | Time Stamp |
|---|---|---|---|---|---|---|---|---|---|---|
| 50691 | 15.8 | 3.84 | 0 | 114 | 44 | 103 | 5.10 | -71 | 8 | 08/30/2025 04:15 PM |
| 50690 | 15.8 | 3.84 | 0 | 113 | 44 | 100 | 5.10 | -69 | 8 | 08/30/2025 04:00 PM |
| 50689 | 15.8 | 3.84 | 0 | 112 | 44 | 99 | 5.20 | -69 | 8 | 08/30/2025 03:45 PM |
| 50688 | 15.8 | 4.08 | 0 | 112 | 43 | 99 | 5.10 | -70 | 8 | 08/30/2025 03:30 PM |
| 50687 | 15.8 | 4.09 | 0 | 110 | 43 | 99 | 5.10 | -71 | 8 | 08/30/2025 03:15 PM |
| 50686 | 15.8 | 3.84 | 0 | 110 | 43 | 101 | 5.10 | -71 | 7 | 08/30/2025 03:00 PM |
| 50685 | 15.8 | 3.84 | 0 | 109 | 42 | 97 | 5.10 | -71 | 8 | 08/30/2025 02:45 PM |
| 50684 | 15.8 | 3.84 | 0 | 108 | 42 | 98 | 5.20 | -69 | 8 | 08/30/2025 02:30 PM |
| 50683 | 15.8 | 3.84 | 0 | 107 | 42 | 97 | 5.20 | -70 | 8 | 08/30/2025 02:15 PM |
| 50682 | 15.8 | 3.84 | 0 | 105 | 42 | 94 | 5.20 | -70 | 8 | 08/30/2025 02:00 PM |
| 50681 | 15.8 | 3.84 | 0 | 104 | 42 | 95 | 5.10 | -70 | 8 | 08/30/2025 01:45 PM |
| 50680 | 15.7 | 3.84 | 0 | 102 | 42 | 95 | 5.20 | -72 | 7 | 08/30/2025 01:30 PM |
| 50679 | 15.7 | 3.84 | 0 | 100 | 42 | 92 | 5.10 | -70 | 7 | 08/30/2025 01:15 PM |
| 50678 | 15.8 | 3.84 | 0 | 98 | 42 | 91 | 5.10 | -72 | 7 | 08/30/2025 12:45 PM |
| 50677 | 15.7 | 3.84 | 0 | 97 | 42 | 90 | 5.10 | -71 | 5 | 08/30/2025 12:30 PM |
| 50676 | 15.7 | 3.99 | 0 | 95 | 42 | 90 | 5.10 | -71 | 8 | 08/30/2025 12:15 PM |
| 50675 | 15.7 | 3.99 | 0 | 94 | 42 | 89 | 5.10 | -70 | 8 | 08/30/2025 12:00 PM |
| 50674 | 15.7 | 3.84 | 0 | 93 | 42 | 87 | 5.10 | -71 | 7 | 08/30/2025 11:45 AM |
| 50673 | 15.8 | 3.84 | 0 | 92 | 42 | 88 | 5.10 | -71 | 7 | 08/30/2025 11:30 AM |
| 50672 | 15.8 | 4.05 | 0 | 91 | 41 | 90 | 5.10 | -71 | 8 | 08/30/2025 11:15 AM |
| 50671 | 15.8 | 4.00 | 0 | 90 | 41 | 92 | 5.20 | -71 | 7 | 08/30/2025 11:00 AM |
| 50670 | 15.8 | 3.87 | 5 | 87 | 41 | 89 | 5.10 | -71 | 7 | 08/30/2025 10:45 AM |
| 50669 | 15.8 | 3.87 | 0 | 85 | 41 | 89 | 5.10 | -71 | 7 | 08/30/2025 10:30 AM |
| 50668 | 15.8 | 3.87 | 8 | 83 | 41 | 84 | 5.10 | -71 | 7 | 08/30/2025 10:15 AM |
| 50667 | 15.8 | 3.87 | 8 | 80 | 41 | 81 | 5.10 | -71 | 8 | 08/30/2025 10:00 AM |